Weather History for Miami, FL

Change the Weather History Date:

Wednesday, March 6, 2013

  Actual Average Record
Temperature  
Mean Temperature 67 °F 72 °F  
Max Temperature 79 °F 80 °F 88 °F (1963)
Min Temperature 55 °F 64 °F 44 °F (1920)
Degree Days  
Heating Degree Days 0 1  
Month to date heating degree days 20 6  
Since 1 July heating degree days 56 122  
Cooling Degree Days 2 7  
Month to date cooling degree days 2 42  
Year to date cooling degree days 481 364  
Growing Degree Days 17 (Base 50)    
Moisture  
Dew Point 52 °F    
Average Humidity 56    
Maximum Humidity 80    
Minimum Humidity 31    
Precipitation  
Precipitation T in 0.09 in 0.71 in (1987)
Month to date precipitation T 0.50  
Year to date precipitation 2.39 4.37  
Snow  
Snow 0.00 in - - ()
Month to date snowfall 0.0  
Since 1 July snowfall 0.0  
Snow Depth 0.00 in    
Sea Level Pressure  
Sea Level Pressure 30.07 in    
Wind  
Wind Speed 9 mph (West)    
Max Wind Speed 20 mph    
Max Gust Speed 26 mph    
Visibility 10 miles    
Events      
T = Trace of Precipitation, MM = Missing Value Source: NWS Daily Summary

Daily Weather History Graph

Daily Weather History Graph

Search for Another Location

Airport:

Trip Planner

Search our weather history database for the weather conditions in past years. The results will help you decide how hot, cold, wet, or windy it might be!

Date:

Astronomy

Mar. 06, 2013 Rise Set
Actual Time 6:39 AM EST 6:25 PM EST
Civil Twilight 6:16 AM EST 6:48 PM EST
Nautical Twilight 5:49 AM EST 7:15 PM EST
Astronomical Twilight 5:23 AM EST 7:42 PM EST
Moon 2:22 AM EST (3/6) 1:29 PM EST (3/6)
Length of Visible Light 12h 32m
Length of Day
11h 46m
Waning Crescent, 30% of the Moon is Illuminated
Mar 6
Waning Crescent
Mar 11
New
Mar 19
First Quarter
Mar 27
Full
Apr 3
Last Quarter

Hourly Weather History & Observations

Time (EST) Temp. Dew Point Humidity Pressure Visibility Wind Dir Wind Speed Gust Speed Precip Events Conditions
12:53 AM 63.0 °F 54.0 °F 72% 30.11 in 10.0 mi WSW 4.6 mph - N/A   Clear
1:53 AM 62.1 °F 54.0 °F 75% 30.09 in 10.0 mi WSW 3.5 mph - N/A   Clear
2:53 AM 61.0 °F 54.0 °F 78% 30.06 in 10.0 mi Calm Calm - N/A   Clear
3:53 AM 60.1 °F 54.0 °F 80% 30.04 in 10.0 mi SSW 4.6 mph - N/A   Clear
4:53 AM 59.0 °F 53.1 °F 81% 30.06 in 10.0 mi WSW 4.6 mph - N/A   Clear
5:53 AM 60.1 °F 53.1 °F 78% 30.07 in 10.0 mi WSW 3.5 mph - N/A   Clear
6:53 AM 60.1 °F 54.0 °F 80% 30.09 in 10.0 mi WSW 6.9 mph - N/A   Clear
7:53 AM 64.0 °F 57.0 °F 78% 30.10 in 10.0 mi SW 5.8 mph - N/A   Partly Cloudy
8:53 AM 69.1 °F 59.0 °F 70% 30.10 in 10.0 mi SW 10.4 mph - N/A   Partly Cloudy
9:53 AM 72.0 °F 57.0 °F 59% 30.10 in 10.0 mi WSW 10.4 mph 18.4 mph N/A   Partly Cloudy
10:53 AM 75.0 °F 57.9 °F 55% 30.10 in 10.0 mi West 12.7 mph 23.0 mph N/A   Scattered Clouds
11:53 AM 78.1 °F 57.9 °F 50% 30.07 in 10.0 mi WSW 18.4 mph 25.3 mph N/A   Scattered Clouds
12:53 PM 78.1 °F 60.1 °F 54% 30.05 in 10.0 mi WSW 12.7 mph 24.2 mph N/A   Mostly Cloudy
1:53 PM 77.0 °F 62.1 °F 60% 30.03 in 10.0 mi West 11.5 mph 24.2 mph 0.00 in   Mostly Cloudy
2:53 PM 79.0 °F 60.1 °F 52% 30.00 in 10.0 mi West 13.8 mph 20.7 mph N/A   Scattered Clouds
3:53 PM 79.0 °F 57.9 °F 48% 29.99 in 10.0 mi West 15.0 mph 25.3 mph N/A   Scattered Clouds
4:53 PM 79.0 °F 52.0 °F 39% 29.99 in 10.0 mi West 15.0 mph 23.0 mph N/A   Scattered Clouds
5:53 PM 75.0 °F 45.0 °F 34% 30.00 in 10.0 mi West 11.5 mph 23.0 mph N/A   Partly Cloudy
6:53 PM 70.0 °F 37.9 °F 31% 30.04 in 10.0 mi West 11.5 mph 19.6 mph N/A   Partly Cloudy
7:53 PM 66.0 °F 35.1 °F 32% 30.07 in 10.0 mi WNW 11.5 mph 19.6 mph N/A   Clear
8:53 PM 62.1 °F 37.0 °F 39% 30.09 in 10.0 mi WNW 9.2 mph - N/A   Clear
9:53 PM 57.9 °F 39.9 °F 51% 30.10 in 10.0 mi WNW 9.2 mph 18.4 mph N/A   Clear
10:53 PM 55.9 °F 41.0 °F 57% 30.12 in 10.0 mi WNW 10.4 mph 19.6 mph N/A   Clear
11:53 PM 55.0 °F 41.0 °F 59% 30.12 in 10.0 mi NW 10.4 mph 18.4 mph N/A   Clear